Wilmington, NC

5:58 PM EDT on May 24, 2018 (GMT -0400)
Wilmington International

Weather History for KILM - May, 2013

Change the Weather History Date:

Friday, May 17, 2013

  Actual Average Record
Temperature  
Mean Temperature 79 °F 71 °F  
Max Temperature 90 °F 81 °F 92 °F (1960)
Min Temperature 68 °F 60 °F 44 °F (1984)
Degree Days  
Heating Degree Days 0 1  
Month to date heating degree days 27 23  
Since 1 July heating degree days 2440 2405  
Cooling Degree Days 14 6  
Month to date cooling degree days 69 83  
Year to date cooling degree days 131 171  
Growing Degree Days 29 (Base 50)    
Moisture  
Dew Point 61 °F    
Average Humidity 59    
Maximum Humidity 84    
Minimum Humidity 34    
Precipitation  
Precipitation 0.00 in 0.16 in 2.51 in (1922)
Month to date precipitation 0.55 2.22  
Year to date precipitation 15.96 16.63  
Sea Level Pressure  
Sea Level Pressure 30.07 in    
Wind  
Wind Speed 7 mph (WSW)    
Max Wind Speed 16 mph    
Max Gust Speed 21 mph    
Visibility 10 miles    
Events      
T = Trace of Precipitation, MM = Missing Value Source: NWS Daily Summary

Daily Weather History Graph

Daily Weather History Graph

Search for Another Location

Airport or City:

Astronomy

May. 17, 2013 Rise Set
Actual Time 6:08 AM EDT 8:08 PM EDT
Civil Twilight 5:40 AM EDT 8:36 PM EDT
Nautical Twilight 5:06 AM EDT 9:10 PM EDT
Astronomical Twilight 4:29 AM EDT 9:46 PM EDT
Moon 12:31 PM EDT (5/17) 1:06 AM EDT (5/17)
Length of Visible Light 14h 56m
Length of Day
14h 00m
Waxing Crescent, 45% of the Moon is Illuminated
May 17
Waxing Crescent
May 18
First Quarter
May 25
Full
May 31
Last Quarter
Jun 8
New

Hourly Weather History & Observations

Time (EDT) Temp. Heat Index Dew Point Humidity Pressure Visibility Wind Dir Wind Speed Gust Speed Precip Events Conditions
12:53 AM 73.0 °F - 64.9 °F 76% 30.02 in 10.0 mi WSW 8.1 mph - N/A   Clear
1:53 AM 71.1 °F - 64.0 °F 78% 30.01 in 10.0 mi WSW 6.9 mph - N/A   Clear
2:53 AM 69.1 °F - 64.0 °F 84% 30.01 in 10.0 mi WSW 5.8 mph - N/A   Clear
3:53 AM 69.1 °F - 64.0 °F 84% 30.02 in 10.0 mi WSW 6.9 mph - N/A   Clear
4:53 AM 68.0 °F - 63.0 °F 84% 30.04 in 10.0 mi WSW 5.8 mph - N/A   Clear
5:53 AM 68.0 °F - 63.0 °F 84% 30.05 in 10.0 mi WSW 8.1 mph - N/A   Clear
6:53 AM 69.1 °F - 62.1 °F 78% 30.07 in 10.0 mi WSW 8.1 mph - N/A   Clear
7:53 AM 71.6 °F - 62.6 °F 73% 30.09 in 10.0 mi West 10.4 mph - N/A   Clear
8:53 AM 75.9 °F - 59.0 °F 56% 30.10 in 10.0 mi West 10.4 mph - N/A   Clear
9:53 AM 80.1 °F 81.2 °F 62.1 °F 54% 30.09 in 10.0 mi West 10.4 mph - N/A   Clear
10:53 AM 82.0 °F 83.1 °F 63.0 °F 52% 30.10 in 10.0 mi Variable 5.8 mph - N/A   Clear
11:53 AM 84.0 °F 84.0 °F 60.1 °F 44% 30.09 in 10.0 mi West 4.6 mph - N/A   Clear
12:53 PM 86.0 °F 85.7 °F 60.1 °F 41% 30.08 in 10.0 mi NW 4.6 mph - N/A   Clear
1:53 PM 87.1 °F 85.9 °F 57.0 °F 36% 30.07 in 10.0 mi Calm Calm - N/A   Clear
2:53 PM 88.0 °F 86.7 °F 57.0 °F 35% 30.06 in 10.0 mi NW 8.1 mph - N/A   Clear
3:53 PM 90.0 °F 88.8 °F 57.9 °F 34% 30.05 in 10.0 mi WNW 8.1 mph - N/A   Partly Cloudy
4:53 PM 89.1 °F 88.8 °F 60.1 °F 38% 30.04 in 10.0 mi SSW 6.9 mph - N/A   Clear
5:53 PM 84.9 °F 85.9 °F 63.0 °F 48% 30.04 in 10.0 mi SSW 13.8 mph - N/A   Clear
6:53 PM 82.0 °F 83.0 °F 62.1 °F 51% 30.05 in 10.0 mi South 11.5 mph - N/A   Clear
7:53 PM 78.1 °F - 61.0 °F 56% 30.07 in 10.0 mi SW 10.4 mph - N/A   Clear
8:53 PM 73.9 °F - 62.1 °F 66% 30.08 in 10.0 mi SW 6.9 mph - N/A   Clear
9:53 PM 72.0 °F - 61.0 °F 68% 30.10 in 10.0 mi SSW 4.6 mph - N/A   Clear
10:53 PM 71.1 °F - 60.1 °F 68% 30.12 in 10.0 mi SSW 8.1 mph - N/A   Clear
11:53 PM 71.1 °F - 60.1 °F 68% 30.12 in 10.0 mi SW 4.6 mph - N/A   Clear